When you browse on this site, cookies collect data to enhance your experience and personalize the content and advertising you see.
Visit our Privacy Policy to learn more. By continuing to use the site, you agree to this use of cookies and data.
  • In Romania
  • List of Countries
  • For 7 days
  • Water Temperature
  • Satellite Maps
  • Weather Map
  • Weather Widgets
  • user-avatar
    Login

    Hourly Weather Huánuco

    Today, 17 July, Wednesday

    Time Temperature Precipitation Wind Pressure Humidity
    00:00 +14°C° 0 mm 0 mps 597 mmHg 90%
    01:00 +14°C° 0 mm 0 mps 597 mmHg 88%
    02:00 +14°C° 0 mm 0 mps 597 mmHg 88%
    03:00 +14°C° 0 mm 1 mps 597 mmHg 89%
    04:00 +14°C° 0 mm 1 mps 596 mmHg 89%
    05:00 +14°C° 0 mm 1 mps 597 mmHg 87%
    06:00 +15°C° 0 mm 1 mps 598 mmHg 85%
    07:00 +15°C° 0 mm 0 mps 598 mmHg 82%
    08:00 +18°C° 0 mm 1 mps 599 mmHg 76%
    09:00 +19°C° 0 mm 1 mps 599 mmHg 70%
    10:00 +20°C° 0 mm 2 mps 600 mmHg 64%
    11:00 +21°C° 0.2 mm 2 mps 600 mmHg 64%
    12:00 +21°C° 0.2 mm 2 mps 600 mmHg 63%
    13:00 +22°C° 0.2 mm 3 mps 600 mmHg 62%
    14:00 +22°C° 0.2 mm 3 mps 599 mmHg 65%
    15:00 +22°C° 0.2 mm 3 mps 598 mmHg 68%
    16:00 +21°C° 0.2 mm 3 mps 598 mmHg 70%
    17:00 +20°C° 0.1 mm 3 mps 597 mmHg 79%
    18:00 +18°C° 0.1 mm 2 mps 597 mmHg 88%
    19:00 +16°C° 0.1 mm 2 mps 597 mmHg 96%
    20:00 +16°C° 0 mm 1 mps 597 mmHg 95%
    21:00 +16°C° 0 mm 1 mps 598 mmHg 95%
    22:00 +16°C° 0 mm 1 mps 598 mmHg 94%
    23:00 +15°C° 0.1 mm 0 mps 598 mmHg 93%

    Tomorrow, 18 July, Thursday

    Time Temperature Precipitation Wind Pressure Humidity
    00:00 +15°C° 0.1 mm 0 mps 598 mmHg 92%
    01:00 +15°C° 0.1 mm 0 mps 598 mmHg 91%
    02:00 +15°C° 0.1 mm 0 mps 597 mmHg 91%
    03:00 +15°C° 0.1 mm 0 mps 597 mmHg 90%
    04:00 +15°C° 0.1 mm 0 mps 597 mmHg 90%
    05:00 +15°C° 0.1 mm 0 mps 597 mmHg 90%
    06:00 +15°C° 0.1 mm 0 mps 598 mmHg 90%
    07:00 +15°C° 0.1 mm 0 mps 598 mmHg 89%
    08:00 +16°C° 0.2 mm 0 mps 598 mmHg 87%
    09:00 +18°C° 0.2 mm 1 mps 599 mmHg 84%
    10:00 +19°C° 0.2 mm 1 mps 599 mmHg 82%
    11:00 +20°C° 0.3 mm 1 mps 599 mmHg 76%
    12:00 +21°C° 0.3 mm 2 mps 599 mmHg 70%
    13:00 +23°C° 0.3 mm 2 mps 599 mmHg 64%
    14:00 +23°C° 0.3 mm 2 mps 598 mmHg 67%
    15:00 +21°C° 0.3 mm 3 mps 598 mmHg 70%
    16:00 +21°C° 0.3 mm 3 mps 597 mmHg 72%
    17:00 +20°C° 0.1 mm 2 mps 597 mmHg 80%
    18:00 +18°C° 0.1 mm 2 mps 597 mmHg 87%
    19:00 +18°C° 0.1 mm 1 mps 597 mmHg 95%
    20:00 +18°C° 0 mm 1 mps 597 mmHg 95%
    21:00 +18°C° 0 mm 1 mps 597 mmHg 95%
    22:00 +16°C° 0 mm 0 mps 598 mmHg 94%
    23:00 +15°C° 0 mm 0 mps 598 mmHg 94%

    Day after tomorrow, 19 July, Friday

    Time Temperature Precipitation Wind Pressure Humidity
    00:00 +15°C° 0 mm 0 mps 597 mmHg 93%
    01:00 +15°C° 0 mm 0 mps 597 mmHg 92%
    02:00 +15°C° 0 mm 0 mps 597 mmHg 91%
    03:00 +15°C° 0 mm 0 mps 597 mmHg 91%
    04:00 +15°C° 0 mm 0 mps 597 mmHg 90%
    05:00 +15°C° 0 mm 0 mps 597 mmHg 90%
    06:00 +15°C° 0 mm 0 mps 597 mmHg 90%
    07:00 +15°C° 0 mm 0 mps 598 mmHg 90%
    08:00 +18°C° 0.1 mm 1 mps 598 mmHg 84%
    09:00 +20°C° 0.1 mm 1 mps 599 mmHg 79%
    10:00 +20°C° 0.1 mm 2 mps 600 mmHg 73%
    11:00 +21°C° 0.5 mm 2 mps 599 mmHg 70%
    12:00 +22°C° 0.5 mm 3 mps 599 mmHg 68%
    13:00 +22°C° 0.5 mm 3 mps 599 mmHg 65%
    14:00 +22°C° 0.5 mm 3 mps 598 mmHg 68%
    15:00 +22°C° 0.5 mm 3 mps 597 mmHg 70%
    16:00 +21°C° 0.5 mm 3 mps 597 mmHg 72%
    17:00 +20°C° 0.2 mm 2 mps 597 mmHg 80%
    18:00 +18°C° 0.2 mm 2 mps 597 mmHg 87%
    19:00 +18°C° 0.2 mm 1 mps 597 mmHg 94%
    20:00 +16°C° 0 mm 1 mps 597 mmHg 94%
    21:00 +16°C° 0 mm 1 mps 597 mmHg 94%
    22:00 +15°C° 0 mm 0 mps 597 mmHg 95%
    23:00 +15°C° 0 mm 0 mps 597 mmHg 93%

    20 July, Saturday

    Time Temperature Precipitation Wind Pressure Humidity
    00:00 +15°C° 0 mm 0 mps 597 mmHg 92%
    01:00 +15°C° 0 mm 0 mps 597 mmHg 90%
    02:00 +14°C° 0 mm 0 mps 597 mmHg 89%
    03:00 +14°C° 0 mm 0 mps 596 mmHg 88%
    04:00 +14°C° 0 mm 0 mps 596 mmHg 87%
    05:00 +15°C° 0 mm 1 mps 596 mmHg 86%
    06:00 +15°C° 0 mm 1 mps 597 mmHg 85%
    07:00 +15°C° 0 mm 1 mps 597 mmHg 84%
    08:00 +18°C° 0 mm 1 mps 598 mmHg 75%
    09:00 +20°C° 0 mm 1 mps 599 mmHg 66%
    10:00 +21°C° 0 mm 2 mps 599 mmHg 57%
    11:00 +23°C° 0.1 mm 2 mps 599 mmHg 55%
    12:00 +24°C° 0.1 mm 3 mps 599 mmHg 54%
    13:00 +25°C° 0.1 mm 3 mps 598 mmHg 53%
    14:00 +24°C° 0.2 mm 3 mps 598 mmHg 57%
    15:00 +24°C° 0.2 mm 3 mps 597 mmHg 61%
    16:00 +22°C° 0.2 mm 3 mps 596 mmHg 65%
    17:00 +20°C° 0 mm 2 mps 596 mmHg 74%
    18:00 +18°C° 0 mm 2 mps 596 mmHg 83%
    19:00 +18°C° 0 mm 1 mps 595 mmHg 92%
    20:00 +16°C° 0 mm 1 mps 596 mmHg 93%
    21:00 +15°C° 0 mm 0 mps 596 mmHg 94%
    22:00 +14°C° 0 mm 0 mps 596 mmHg 94%
    23:00 +14°C° 0 mm 0 mps 596 mmHg 92%

    21 July, Sunday

    Time Temperature Precipitation Wind Pressure Humidity
    00:00 +14°C° 0 mm 0 mps 596 mmHg 90%
    01:00 +15°C° 0 mm 0 mps 596 mmHg 88%
    02:00 +15°C° 0 mm 1 mps 596 mmHg 89%
    03:00 +14°C° 0 mm 1 mps 595 mmHg 89%
    04:00 +14°C° 0 mm 1 mps 595 mmHg 89%
    05:00 +14°C° 0 mm 1 mps 595 mmHg 87%
    06:00 +15°C° 0 mm 1 mps 596 mmHg 85%
    07:00 +15°C° 0 mm 1 mps 596 mmHg 83%
    08:00 +18°C° 0 mm 1 mps 597 mmHg 74%
    09:00 +21°C° 0 mm 1 mps 598 mmHg 65%
    10:00 +23°C° 0 mm 2 mps 599 mmHg 56%
    11:00 +23°C° 0.1 mm 2 mps 599 mmHg 55%
    12:00 +24°C° 0.1 mm 3 mps 598 mmHg 54%
    13:00 +25°C° 0.1 mm 3 mps 598 mmHg 54%
    14:00 +24°C° 0.2 mm 3 mps 597 mmHg 58%
    15:00 +24°C° 0.2 mm 3 mps 597 mmHg 61%
    16:00 +22°C° 0.2 mm 3 mps 596 mmHg 65%
    17:00 +21°C° 0.1 mm 3 mps 596 mmHg 75%
    18:00 +19°C° 0.1 mm 2 mps 596 mmHg 84%
    19:00 +18°C° 0.1 mm 1 mps 595 mmHg 94%
    20:00 +18°C° 0 mm 1 mps 596 mmHg 94%
    21:00 +15°C° 0 mm 0 mps 596 mmHg 93%
    22:00 +15°C° 0 mm 0 mps 596 mmHg 93%
    23:00 +15°C° 0 mm 0 mps 596 mmHg 92%

    22 July, Monday

    Time Temperature Precipitation Wind Pressure Humidity
    00:00 +15°C° 0 mm 0 mps 596 mmHg 92%
    01:00 +14°C° 0 mm 0 mps 596 mmHg 91%
    02:00 +14°C° 0 mm 0 mps 595 mmHg 90%
    03:00 +14°C° 0 mm 0 mps 595 mmHg 89%
    04:00 +14°C° 0 mm 0 mps 595 mmHg 89%
    05:00 +15°C° 0 mm 1 mps 596 mmHg 87%
    06:00 +15°C° 0 mm 1 mps 596 mmHg 86%
    07:00 +16°C° 0 mm 1 mps 597 mmHg 84%
    08:00 +19°C° 0 mm 1 mps 598 mmHg 76%
    09:00 +21°C° 0 mm 1 mps 598 mmHg 68%
    10:00 +23°C° 0 mm 2 mps 599 mmHg 60%
    11:00 +23°C° 0.1 mm 2 mps 599 mmHg 59%
    12:00 +24°C° 0.1 mm 2 mps 598 mmHg 58%
    13:00 +25°C° 0.1 mm 2 mps 598 mmHg 57%
    14:00 +24°C° 0.2 mm 3 mps 597 mmHg 60%
    15:00 +24°C° 0.2 mm 3 mps 597 mmHg 64%
    16:00 +24°C° 0.2 mm 3 mps 596 mmHg 68%
    17:00 +21°C° 0.1 mm 3 mps 596 mmHg 77%
    18:00 +19°C° 0.1 mm 2 mps 596 mmHg 87%
    19:00 +19°C° 0.1 mm 1 mps 596 mmHg 96%
    20:00 +19°C° 0 mm 1 mps 596 mmHg 95%
    21:00 +18°C° 0 mm 1 mps 597 mmHg 94%
    22:00 +18°C° 0 mm 1 mps 597 mmHg 92%
    23:00 +18°C° 0 mm 1 mps 597 mmHg 92%
    Show more